Location: Azul
(36.7830°S, 59.8500°W)
Time: 12:23:43
(UTC-03:00)

DX 1 - Pass Details

Date: 29 October 2021
Orbit: 619 x 629 km, 98.4° (Epoch: 29 November)

Event Time Altitude Azimuth Distance (km) Brightness Sun altitude
Rises 19:57:17 0° 24° (NNE) 2,909 ? -6.0°
Reaches altitude 10° 19:59:29 10° 27° (NNE) 2,009 ? -6.4°
Maximum altitude 20:03:47 59° 106° (ESE) 736 ? -7.2°
Drops below altitude 10° 20:08:08 10° 185° (S) 2,031 ? -8.0°
Sets 20:10:22 0° 188° (S) 2,945 ? -8.4°
